Wind_Speed
10 13 11 8 9 11 12 18 22 22 26 26 28 27 24 23 24 20 17 18 15 14 15 15 16 15 16 16 14 15 14 15 14 14 13 12 12 14 14 14 14 15 14
16 12 9 6 7 11 14 17 23 23 26 27 27 24 27 24 19 16 15 13 13 13 15 15 15 16 17 18 18 18 17 16 17 14 13 12 13 15 14 12 14 14 13
18 13 9 5 5 9 16 18 24 25 26 28 27 27 24 20 14 12 12 11 11 13 14 16 16 17 18 19 21 20 21 18 17 13 12 13 14 15 14 12 12 13 12
19 15 12 11 10 12 18 20 24 25 27 29 29 25 21 19 15 13 14 14 14 17 16 17 17 17 18 20 18 17 16 14 15 13 13 13 12 13 12 12 12 12 12
21 17 14 17 15 17 22 22 24 27 28 30 28 24 20 17 15 14 14 16 17 16 17 16 17 19 16 17 14 13 12 10 9 9 11 13 13 11 12 13 12 13 13
23 18 20 19 19 20 21 23 26 28 32 31 28 25 18 14 15 14 15 18 19 17 16 15 17 17 14 13 12 10 7 6 11 11 10 12 13 11 12 12 12 13 13
25 21 22 20 20 21 22 22 27 30 33 33 30 27 18 15 13 15 18 18 19 17 15 15 15 16 12 11 10 9 7 5 15 12 10 11 13 11 11 11 12 12 13
29 25 25 23 21 22 22 24 26 30 31 30 30 27 20 15 12 16 20 18 18 16 15 14 15 14 12 10 9 9 11 11 15 11 10 10 12 11 10 11 11 11 13
27 26 22 23 22 23 22 25 28 29 29 28 27 23 16 12 13 19 18 18 16 15 12 13 13 13 12 9 8 10 8 7 13 9 11 11 11 11 11 11 12 12 12
26 26 24 22 24 25 24 24 26 26 27 26 24 20 19 15 18 16 17 17 14 12 11 11 10 10 10 9 7 7 6 7 12 9 10 10 12 12 12 11 11 13 12
22 24 23 22 23 23 23 23 23 24 25 23 20 20 20 18 17 16 16 13 12 11 11 10 8 7 6 7 6 5 5 6 12 10 9 10 11 12 12 12 12 13 13
26 25 24 24 25 23 20 22 23 23 25 25 23 20 19 17 14 14 12 10 10 9 8 6 4 4 4 3 5 7 6 5 12 10 9 11 12 14 12 13 12 12 13
31 26 24 25 26 24 23 24 23 23 23 23 28 23 16 13 11 10 11 10 9 8 7 6 5 3 4 5 5 8 9 11 13 7 8 14 13 14 14 12 13 13 13
29 26 25 25 25 24 23 23 23 22 20 20 19 17 15 13 8 9 10 12 10 8 5 5 5 6 6 9 10 8 9 10 16 14 12 13 13 12 15 14 12 13 12
24 28 28 28 26 22 24 21 22 20 20 17 16 15 14 14 12 10 10 9 8 9 6 7 7 8 10 11 11 11 9 6 4 18 22 12 11 15 15 15 14 15 15
25 30 29 30 26 19 16 22 20 20 20 19 14 14 14 12 11 11 14 16 13 11 9 10 11 11 12 9 13 12 12 11 10 12 21 21 21 10 18 18 18 16 17
28 32 33 29 23 22 14 20 19 17 19 17 18 15 13 13 10 6 12 15 12 12 12 11 13 16 12 10 15 15 16 13 12 13 14 18 16 20 18 21 18 17 17
32 32 32 26 25 22 21 18 15 21 19 20 20 14 14 12 11 8 8 11 9 8 8 11 10 10 13 13 18 19 16 15 14 15 14 16 16 18 22 26 21 17 21
35 32 26 22 22 21 19 17 12 19 22 18 18 15 11 15 13 11 11 10 9 9 10 12 13 11 11 11 15 14 12 12 14 17 13 13 17 18 21 27 23 21 23
29 26 21 20 21 19 14 19 13 22 20 18 16 16 13 12 15 14 12 10 10 12 13 11 10 12 12 13 11 13 14 16 17 15 16 12 13 14 20 24 29 24 21
30 31 26 25 22 21 19 20 17 18 17 17 17 17 16 14 17 16 15 14 12 16 12 11 9 9 10 10 10 15 14 12 4 8 13 13 11 10 14 21 21 28 26
35 33 31 30 27 23 21 21 17 16 16 16 18 17 17 18 17 17 15 14 12 7 8 8 8 9 9 6 4 3 2 2 1 2 5 12 14 15 17 19 18 23 23
32 33 34 32 30 25 22 19 14 12 14 14 18 18 19 19 17 18 17 13 11 10 10 11 7 7 7 4 4 4 0 2 3 2 4 4 12 6 18 21 20 14 17
32 35 35 32 32 27 23 20 21 17 17 16 19 21 23 22 19 17 17 14 11 10 9 8 7 6 6 7 7 3 11 6 2 2 3 6 9 22 21 18 18 16 13
30 33 36 33 32 27 25 23 23 20 18 14 18 19 18 19 20 19 18 14 15 13 10 8 8 9 8 7 5 3 3 5 6 3 2 4 13 19 18 21 21 18 17
28 28 33 35 34 29 29 23 25 22 18 14 15 20 19 22 21 20 18 16 16 14 11 10 9 8 9 8 9 8 7 3 3 3 2 4 5 9 15 16 17 19 21
Wind_Direction
132 126 118 116 124 127 132 143 143 137 133 132 131 130 132 133 127 121 111 112 110 113 113 115 119 132 127 123 128 123 121 121 118 120 121 125 132 141 138 137 141 143 139
132 128 111 119 141 144 148 146 148 142 137 136 134 131 130 132 130 117 113 114 118 122 118 117 123 121 117 123 120 119 122 122 119 125 126 128 134 145 137 140 145 145 145
127 118 106 101 124 155 161 153 151 146 138 134 133 133 130 131 128 124 120 121 120 126 131 120 122 117 119 119 115 119 116 122 120 128 127 124 120 143 143 145 142 147 147
124 108 78 80 65 127 153 152 152 147 137 131 131 129 129 126 126 129 131 122 117 119 124 120 118 118 120 120 119 117 117 129 113 117 117 122 126 131 138 144 146 145 151
113 95 76 74 81 113 138 146 148 146 142 135 133 128 123 118 127 128 130 127 121 119 119 122 123 120 122 119 119 122 124 136 135 145 129 125 122 125 138 145 146 151 149
108 96 88 88 87 106 128 140 143 143 138 132 131 125 116 114 127 132 137 131 124 127 126 125 129 133 132 125 117 108 105 142 148 162 139 129 127 128 129 143 152 151 150
112 102 96 94 92 103 115 133 140 140 135 136 137 130 131 119 127 136 138 130 128 130 131 129 134 138 138 128 115 100 90 164 175 169 154 137 129 129 133 142 146 150 151
123 113 100 95 97 104 112 127 135 137 134 138 142 138 123 119 132 139 131 132 130 134 135 129 135 143 146 136 119 88 92 159 166 169 164 145 135 133 134 143 147 145 155
126 122 114 105 100 100 112 118 130 133 136 139 143 139 141 118 135 136 132 133 136 140 144 133 134 145 155 145 124 112 113 139 178 176 170 154 144 142 140 148 153 154 157
135 132 130 123 109 105 109 122 128 134 135 138 139 138 137 143 134 135 138 138 143 149 150 139 136 143 150 158 144 136 144 169 196 195 178 167 161 153 150 149 160 161 162
138 139 138 131 122 113 112 117 125 134 143 145 144 148 151 145 142 146 147 149 154 156 151 149 146 151 142 158 166 158 126 156 171 189 189 183 179 172 161 158 160 169 168
150 150 147 142 136 134 135 135 132 138 145 146 138 145 149 145 148 152 154 161 162 167 167 155 152 168 151 185 218 225 237 181 185 200 214 207 196 189 180 169 171 170 178
158 155 161 152 145 146 146 143 144 151 149 149 144 143 136 151 155 166 165 179 172 173 179 174 179 220 265 272 270 257 260 239 233 230 218 226 214 205 199 187 182 179 181
165 167 163 159 151 151 149 155 156 153 155 165 175 174 166 156 157 178 185 184 178 178 187 211 240 261 284 290 274 281 292 287 248 226 220 222 216 223 213 207 196 193 189
168 171 171 166 165 153 162 167 169 167 165 169 175 186 192 179 183 196 207 212 201 202 196 236 256 275 274 278 278 272 282 269 234 230 235 227 207 236 226 216 210 205 201
173 176 173 174 175 169 172 174 175 184 183 181 181 188 197 201 213 231 245 233 226 226 229 243 255 269 285 275 260 267 275 256 260 246 235 237 244 236 219 221 222 213 208
174 182 179 173 185 177 166 179 183 187 205 205 205 204 209 211 215 220 218 212 228 231 235 249 259 255 276 271 268 268 278 275 268 255 254 242 247 236 224 224 231 222 212
157 163 168 169 165 168 167 164 182 201 204 201 204 213 210 213 216 215 213 221 234 251 251 240 267 263 268 278 270 279 279 278 272 270 272 264 251 240 232 227 223 230 226
165 162 166 176 172 174 172 173 170 177 185 194 197 208 219 217 222 227 241 242 250 266 265 271 260 270 274 282 277 287 282 290 286 280 288 280 254 250 235 236 235 238 220
175 173 178 179 186 185 186 177 171 183 192 200 207 208 221 225 225 234 239 246 256 264 263 277 273 260 273 282 275 285 284 285 283 267 266 259 265 253 248 241 234 238 236
184 179 180 183 189 187 184 189 194 200 202 205 213 219 229 238 234 250 242 247 256 260 266 280 271 253 269 275 285 280 277 275 282 242 242 230 243 293 256 253 261 242 238
185 188 183 187 189 195 194 198 203 207 215 228 227 228 229 235 231 232 241 242 248 245 248 270 263 258 262 265 264 304 314 282 231 311 193 209 210 245 258 256 253 249 234
179 182 186 190 188 195 201 201 207 211 221 225 230 231 228 227 232 235 232 235 243 245 260 251 244 243 264 287 248 246 210 235 321 112 178 195 175 223 225 246 234 231 231
187 185 187 193 192 194 196 204 212 210 206 219 226 228 232 229 227 234 237 238 246 248 252 237 235 241 254 269 291 248 245 236 194 321 165 214 209 198 208 229 229 218 215
189 188 191 192 193 196 195 205 209 215 217 228 231 229 229 221 225 236 242 244 241 250 254 241 227 228 226 241 242 271 234 227 238 175 256 215 214 210 230 223 218 221 214
193 187 191 195 198 198 201 202 207 216 214 216 216 220 229 226 232 238 233 241 245 251 249 247 237 229 233 249 239 252 253 227 220 198 213 250 223 212 228 215 216 228 210
Height
796 794 793 794 792 791 792 792 793 794 796 799 800 803 806 809 811 813 814 815 816 817 818 819 820 821 822 825 826 826 827 828 829 831 832 832 831 831 833 834 834 835 836
794 795 795 794 792 790 792 792 793 796 797 801 803 806 808 812 814 814 815 817 818 819 820 821 822 823 825 826 827 828 830 831 833 834 834 833 833 834 834 835 835 836 837
795 796 796 794 792 789 791 793 795 798 799 802 805 809 811 814 815 817 818 819 819 820 822 824 825 826 827 829 830 832 833 834 835 836 835 835 835 835 835 836 836 836 837
796 797 796 792 789 787 789 793 796 799 803 805 809 812 815 815 817 819 819 819 821 822 825 826 827 829 829 831 834 834 834 836 837 837 836 836 836 836 837 837 838 839 839
797 797 796 792 791 789 790 793 796 800 804 808 812 814 817 818 819 820 820 821 823 825 827 830 830 830 832 834 835 836 836 836 838 838 837 837 837 837 837 838 839 839 840
798 798 797 797 795 793 792 796 798 803 806 810 813 816 818 820 820 821 823 823 824 828 830 832 832 833 835 837 837 838 838 837 838 838 837 837 837 838 839 839 839 839 840
799 800 801 800 799 797 796 799 801 804 807 810 813 815 818 822 823 824 825 827 827 830 832 833 833 835 837 839 839 839 839 838 838 838 838 837 837 839 839 840 840 841 842
800 803 804 804 803 801 800 801 804 805 809 812 817 819 820 823 825 826 827 830 831 832 834 834 835 837 838 840 840 841 840 839 840 839 839 839 839 840 840 840 841 842 843
803 805 807 807 805 804 803 804 807 811 813 816 819 822 823 823 826 828 830 832 833 835 835 835 836 838 839 840 841 842 842 842 841 841 841 840 841 841 841 841 841 842 842
806 808 808 808 808 808 808 809 811 814 817 820 822 824 825 827 828 830 832 834 835 836 837 837 838 839 839 840 841 842 842 842 842 842 841 841 841 840 841 841 842 842 843
809 810 809 809 811 812 814 815 816 817 821 823 825 826 828 830 831 832 834 836 837 837 837 838 839 840 840 841 841 842 842 842 842 843 842 842 841 840 840 841 841 842 843
808 810 811 811 814 816 818 820 821 823 824 826 827 828 829 831 832 834 835 837 838 839 839 839 840 841 842 842 842 842 842 843 843 843 842 841 840 840 839 839 841 842 843
805 810 812 814 815 816 818 820 822 824 827 829 830 832 832 831 833 834 835 838 838 839 839 839 840 841 841 841 840 841 841 842 842 842 842 842 842 843 843 841 840 841 842
805 808 812 815 816 817 819 821 823 825 828 831 833 834 833 833 833 834 836 837 838 838 839 839 839 839 840 840 840 839 839 838 839 839 837 839 842 844 845 844 843 842 842
806 808 811 814 816 818 820 822 824 826 828 831 833 833 833 834 836 836 837 836 837 838 837 837 838 838 838 838 838 837 836 836 835 836 837 840 840 841 842 843 841 841 841
805 807 810 813 815 818 821 823 823 825 828 830 831 832 834 835 836 836 836 836 837 836 836 836 836 837 836 834 835 834 834 835 835 834 835 836 834 836 837 838 836 836 839
803 805 809 813 815 818 819 822 823 825 827 829 830 832 833 834 835 835 834 835 835 835 835 835 835 835 834 833 832 831 831 833 832 831 831 832 832 833 834 834 835 835 836
803 805 810 813 814 816 818 819 822 823 825 827 829 831 832 833 833 833 834 834 834 833 833 832 832 832 830 829 828 828 829 829 829 829 829 828 829 828 829 829 831 832 834
801 805 809 811 812 814 817 818 820 821 824 826 828 829 830 831 831 831 832 832 832 832 831 830 830 829 827 826 826 826 826 824 824 824 825 824 825 825 825 826 828 827 829
800 804 806 808 811 814 815 818 820 823 824 825 826 827 828 828 829 829 829 829 829 829 829 828 827 826 825 823 823 822 823 821 821 820 819 819 820 823 824 827 827 826 824
799 801 803 806 809 812 814 816 818 820 822 823 823 824 825 825 826 826 825 826 826 826 825 825 824 823 822 821 821 819 819 817 817 815 815 815 814 820 821 824 824 823 823
793 796 799 802 806 809 811 813 816 818 819 820 822 822 821 821 822 822 822 822 823 822 822 822 822 822 820 819 819 819 819 818 817 814 814 813 813 816 816 819 820 819 821
792 792 795 799 803 806 809 813 815 816 816 817 816 817 817 817 817 818 819 819 820 819 819 820 820 820 819 817 817 818 820 820 815 814 814 814 813 816 813 815 817 818 819
788 790 793 797 801 804 807 810 811 813 812 812 812 813 814 814 814 815 817 817 818 818 818 818 819 819 819 818 816 814 813 814 815 816 813 813 813 813 813 814 817 816 817
786 788 791 795 799 802 804 806 808 810 810 810 810 810 811 812 813 815 816 816 817 817 817 817 817 817 817 816 814 811 811 812 811 811 815 812 812 810 810 810 812 814 814
784 788 790 793 796 800 802 803 805 806 807 807 807 808 809 811 812 813 814 813 814 816 817 817 817 817 817 816 813 811 810 809 809 809 811 808 808 808 807 807 809 808 810